SITRO-AIS 11 (SHEFFER)

Last updated on Tue Jul 01 2025 00:03:45 GMT+0000 (Coordinated Universal Time)

1 57208U 23091AU 25181.58062370 .00008164 00000+0 32943-3 0 9997 2 57208 97.5579 241.8512 0007964 224.5323 135.5275 15.25037376110971
UTC large
Height (km)
Speed (km/s)
/
Latitude / Longitude
Inclination (degrees)
Orbital Period (minutes)
Azimuth
Elevation
Range (km)
Doppler Factor

Next 0 passes for location: London (51.5072 / 0.1276)

Sorry there are no passes over London.